QPF
0.00 0.00 0.00 0.00 0.00 0.00 0.00 0.00 0.00 0.00 0.00 0.00 0.00 0.00 0.00 0.00 0.00 0.00 0.00 0.00 0.00 0.00 0.00 0.00 0.00 0.00 0.00 0.00 0.00 0.00 0.00 0.00 0.00 0.00 0.00 0.00 0.00 0.00 0.00 0.00 0.00 0.00 0.00 0.00 0.00 0.00 0.01 0.02 0.03
0.00 0.00 0.00 0.00 0.00 0.00 0.00 0.00 0.00 0.00 0.00 0.00 0.00 0.00 0.00 0.00 0.00 0.00 0.00 0.00 0.00 0.00 0.00 0.00 0.00 0.00 0.00 0.00 0.00 0.00 0.00 0.00 0.00 0.00 0.00 0.00 0.00 0.00 0.00 0.00 0.00 0.00 0.00 0.00 0.00 0.00 0.00 0.00 0.02
0.00 0.00 0.00 0.00 0.00 0.00 0.00 0.00 0.00 0.00 0.00 0.00 0.00 0.00 0.00 0.00 0.00 0.00 0.00 0.00 0.00 0.00 0.00 0.00 0.00 0.00 0.00 0.00 0.00 0.00 0.00 0.00 0.00 0.00 0.00 0.00 0.00 0.00 0.00 0.00 0.00 0.00 0.00 0.00 0.00 0.00 0.00 0.00 0.00
0.00 0.00 0.00 0.00 0.00 0.00 0.00 0.00 0.00 0.00 0.00 0.00 0.00 0.00 0.00 0.00 0.00 0.00 0.00 0.00 0.00 0.00 0.00 0.00 0.00 0.00 0.00 0.00 0.00 0.00 0.00 0.00 0.00 0.00 0.00 0.00 0.00 0.00 0.00 0.00 0.00 0.00 0.00 0.00 0.00 0.00 0.00 0.00 0.00
0.00 0.00 0.00 0.00 0.00 0.00 0.00 0.00 0.00 0.00 0.00 0.00 0.00 0.00 0.00 0.00 0.00 0.00 0.00 0.00 0.00 0.00 0.00 0.00 0.00 0.00 0.00 0.00 0.00 0.00 0.00 0.00 0.00 0.00 0.00 0.00 0.00 0.00 0.00 0.00 0.00 0.00 0.00 0.00 0.00 0.00 0.00 0.00 0.00
0.00 0.00 0.00 0.00 0.00 0.00 0.00 0.00 0.00 0.00 0.00 0.00 0.00 0.00 0.00 0.00 0.00 0.00 0.00 0.00 0.00 0.00 0.00 0.00 0.00 0.00 0.00 0.00 0.00 0.00 0.00 0.00 0.00 0.00 0.00 0.00 0.00 0.00 0.00 0.00 0.00 0.00 0.00 0.00 0.00 0.00 0.00 0.00 0.00
0.00 0.00 0.00 0.00 0.00 0.00 0.00 0.00 0.00 0.00 0.00 0.00 0.00 0.00 0.00 0.00 0.00 0.00 0.00 0.00 0.00 0.00 0.00 0.00 0.00 0.00 0.00 0.00 0.00 0.00 0.00 0.00 0.00 0.00 0.00 0.00 0.00 0.00 0.00 0.00 0.00 0.00 0.00 0.00 0.00 0.00 0.00 0.00 0.00
0.00 0.00 0.00 0.00 0.00 0.00 0.00 0.00 0.00 0.00 0.00 0.00 0.00 0.00 0.00 0.00 0.00 0.00 0.00 0.00 0.00 0.00 0.00 0.00 0.00 0.00 0.00 0.00 0.00 0.00 0.00 0.00 0.00 0.00 0.00 0.00 0.00 0.00 0.00 0.00 0.00 0.00 0.00 0.00 0.00 0.00 0.00 0.00 0.00
0.00 0.00 0.00 0.00 0.00 0.00 0.00 0.00 0.00 0.00 0.00 0.00 0.00 0.00 0.00 0.00 0.00 0.00 0.00 0.00 0.00 0.00 0.00 0.00 0.00 0.00 0.00 0.00 0.00 0.00 0.00 0.00 0.00 0.00 0.00 0.00 0.00 0.00 0.00 0.00 0.00 0.00 0.00 0.00 0.00 0.00 0.00 0.00 0.00
0.00 0.00 0.00 0.00 0.00 0.00 0.00 0.00 0.00 0.00 0.00 0.00 0.00 0.00 0.00 0.00 0.00 0.00 0.00 0.00 0.00 0.00 0.00 0.00 0.00 0.00 0.00 0.00 0.00 0.00 0.00 0.00 0.00 0.00 0.00 0.00 0.00 0.00 0.00 0.00 0.00 0.00 0.00 0.00 0.00 0.00 0.00 0.00 0.00
0.00 0.00 0.00 0.00 0.00 0.00 0.00 0.00 0.00 0.00 0.00 0.00 0.00 0.00 0.00 0.00 0.00 0.00 0.00 0.00 0.00 0.00 0.00 0.00 0.00 0.00 0.00 0.00 0.00 0.00 0.00 0.00 0.00 0.00 0.00 0.00 0.00 0.00 0.00 0.00 0.00 0.00 0.00 0.00 0.00 0.00 0.00 0.00 0.00
0.00 0.00 0.00 0.00 0.00 0.00 0.00 0.00 0.00 0.00 0.00 0.00 0.00 0.00 0.00 0.00 0.00 0.00 0.00 0.00 0.00 0.00 0.00 0.00 0.00 0.00 0.00 0.00 0.00 0.00 0.00 0.00 0.00 0.00 0.00 0.00 0.00 0.00 0.00 0.00 0.00 0.00 0.00 0.00 0.00 0.00 0.00 0.00 0.00
0.00 0.00 0.00 0.00 0.00 0.00 0.00 0.00 0.00 0.00 0.00 0.00 0.00 0.00 0.00 0.00 0.00 0.00 0.00 0.00 0.00 0.00 0.00 0.00 0.00 0.00 0.00 0.00 0.00 0.00 0.00 0.00 0.00 0.00 0.00 0.00 0.00 0.00 0.00 0.00 0.00 0.00 0.00 0.00 0.00 0.00 0.00 0.00 0.00
0.00 0.00 0.00 0.00 0.00 0.00 0.00 0.00 0.00 0.00 0.00 0.00 0.00 0.00 0.00 0.00 0.00 0.00 0.00 0.00 0.00 0.00 0.00 0.00 0.00 0.00 0.00 0.00 0.00 0.00 0.00 0.00 0.00 0.00 0.00 0.00 0.00 0.00 0.00 0.00 0.00 0.00 0.00 0.00 0.00 0.00 0.00 0.00 0.00
0.00 0.00 0.00 0.00 0.00 0.00 0.00 0.00 0.00 0.00 0.00 0.00 0.00 0.00 0.00 0.00 0.00 0.00 0.00 0.00 0.00 0.00 0.00 0.00 0.00 0.00 0.00 0.00 0.00 0.00 0.00 0.00 0.00 0.00 0.00 0.00 0.00 0.00 0.00 0.00 0.00 0.00 0.00 0.00 0.00 0.00 0.00 0.00 0.00
0.00 0.00 0.00 0.00 0.00 0.00 0.00 0.00 0.00 0.00 0.00 0.00 0.00 0.00 0.00 0.00 0.00 0.00 0.00 0.00 0.00 0.00 0.00 0.00 0.00 0.00 0.00 0.00 0.00 0.00 0.00 0.00 0.00 0.00 0.00 0.00 0.00 0.01 0.01 0.01 0.00 0.00 0.00 0.00 0.00 0.00 0.00 0.00 0.00
0.00 0.00 0.00 0.00 0.00 0.00 0.00 0.00 0.00 0.00 0.00 0.00 0.00 0.00 0.00 0.00 0.00 0.00 0.00 0.00 0.00 0.00 0.00 0.00 0.00 0.00 0.00 0.00 0.00 0.00 0.00 0.00 0.00 0.00 0.00 0.00 0.00 0.01 0.01 0.01 0.01 0.00 0.00 0.00 0.00 0.00 0.00 0.00 0.00
0.00 0.00 0.00 0.00 0.00 0.00 0.00 0.00 0.00 0.00 0.00 0.00 0.00 0.00 0.00 0.00 0.00 0.00 0.00 0.00 0.00 0.00 0.00 0.00 0.00 0.00 0.00 0.00 0.00 0.00 0.00 0.00 0.00 0.01 0.01 0.00 0.01 0.01 0.02 0.02 0.01 0.01 0.01 0.00 0.00 0.00 0.00 0.00 0.00
0.00 0.00 0.00 0.00 0.00 0.00 0.00 0.00 0.00 0.00 0.00 0.00 0.00 0.00 0.00 0.00 0.00 0.00 0.00 0.00 0.00 0.00 0.00 0.00 0.00 0.00 0.00 0.00 0.00 0.00 0.00 0.00 0.00 0.01 0.01 0.00 0.02 0.01 0.02 0.01 0.01 0.01 0.02 0.01 0.01 0.00 0.00 0.00 0.00
0.00 0.00 0.00 0.00 0.00 0.00 0.00 0.00 0.00 0.00 0.00 0.00 0.00 0.00 0.00 0.00 0.00 0.00 0.00 0.00 0.00 0.00 0.00 0.00 0.00 0.00 0.00 0.00 0.00 0.00 0.00 0.00 0.00 0.01 0.00 0.01 0.01 0.01 0.01 0.01 0.01 0.01 0.02 0.02 0.01 0.01 0.00 0.00 0.00
0.00 0.00 0.00 0.00 0.00 0.00 0.00 0.00 0.00 0.00 0.00 0.00 0.00 0.00 0.00 0.00 0.00 0.00 0.00 0.00 0.00 0.00 0.00 0.00 0.00 0.00 0.00 0.00 0.00 0.00 0.00 0.00 0.00 0.00 0.00 0.01 0.00 0.01 0.01 0.02 0.01 0.01 0.01 0.02 0.01 0.01 0.00 0.00 0.00
0.00 0.00 0.00 0.00 0.00 0.00 0.00 0.00 0.00 0.00 0.00 0.00 0.00 0.00 0.00 0.00 0.00 0.00 0.00 0.00 0.00 0.00 0.00 0.00 0.00 0.00 0.00 0.00 0.00 0.00 0.00 0.00 0.00 0.00 0.01 0.01 0.00 0.01 0.01 0.02 0.02 0.01 0.01 0.02 0.01 0.02 0.01 0.00 0.00
0.00 0.00 0.00 0.00 0.00 0.00 0.00 0.00 0.00 0.00 0.00 0.00 0.00 0.00 0.00 0.00 0.00 0.00 0.00 0.00 0.00 0.00 0.00 0.00 0.00 0.00 0.00 0.00 0.00 0.00 0.00 0.00 0.00 0.00 0.01 0.01 0.01 0.01 0.02 0.02 0.02 0.02 0.02 0.01 0.01 0.02 0.02 0.01 0.00
0.00 0.00 0.00 0.00 0.00 0.00 0.00 0.00 0.00 0.00 0.00 0.00 0.00 0.00 0.00 0.00 0.00 0.00 0.00 0.00 0.00 0.00 0.00 0.00 0.00 0.00 0.00 0.00 0.00 0.00 0.00 0.00 0.00 0.00 0.01 0.01 0.01 0.01 0.01 0.03 0.04 0.03 0.01 0.02 0.02 0.03 0.02 0.02 0.01
0.00 0.00 0.00 0.00 0.00 0.00 0.00 0.00 0.00 0.00 0.00 0.00 0.00 0.00 0.00 0.00 0.00 0.00 0.00 0.00 0.00 0.00 0.00 0.00 0.00 0.00 0.00 0.00 0.00 0.00 0.00 0.00 0.00 0.00 0.01 0.00 0.00 0.01 0.01 0.02 0.04 0.04 0.02 0.01 0.02 0.02 0.01 0.01 0.02
0.00 0.00 0.00 0.00 0.00 0.00 0.00 0.00 0.00 0.00 0.00 0.00 0.00 0.00 0.00 0.00 0.00 0.00 0.00 0.00 0.00 0.00 0.00 0.00 0.00 0.00 0.00 0.00 0.00 0.00 0.00 0.00 0.00 0.00 0.00 0.00 0.01 0.01 0.00 0.01 0.01 0.02 0.02 0.01 0.02 0.01 0.01 0.02 0.02
0.00 0.00 0.00 0.00 0.00 0.00 0.00 0.00 0.00 0.00 0.00 0.00 0.00 0.00 0.00 0.00 0.00 0.00 0.00 0.00 0.00 0.00 0.00 0.00 0.00 0.00 0.00 0.00 0.00 0.00 0.00 0.00 0.00 0.00 0.00 0.00 0.00 0.00 0.00 0.00 0.01 0.01 0.01 0.01 0.01 0.02 0.01 0.01 0.01
0.00 0.00 0.00 0.00 0.00 0.00 0.00 0.00 0.00 0.00 0.00 0.00 0.00 0.00 0.00 0.00 0.00 0.00 0.00 0.00 0.00 0.00 0.00 0.00 0.00 0.00 0.00 0.00 0.00 0.00 0.00 0.00 0.00 0.00 0.00 0.00 0.00 0.00 0.00 0.02 0.01 0.01 0.01 0.00 0.01 0.02 0.02 0.01 0.00
0.00 0.00 0.00 0.00 0.00 0.00 0.00 0.00 0.00 0.00 0.00 0.00 0.00 0.00 0.00 0.00 0.00 0.00 0.00 0.00 0.00 0.00 0.00 0.00 0.00 0.00 0.00 0.00 0.00 0.00 0.00 0.00 0.00 0.00 0.00 0.00 0.00 0.00 0.00 0.03 0.03 0.03 0.01 0.00 0.01 0.01 0.01 0.01 0.00
0.00 0.00 0.00 0.00 0.00 0.00 0.00 0.00 0.00 0.00 0.00 0.00 0.00 0.00 0.00 0.00 0.00 0.00 0.00 0.00 0.00 0.00 0.00 0.00 0.00 0.00 0.00 0.00 0.00 0.00 0.00 0.00 0.00 0.00 0.00 0.00 0.00 0.00 0.00 0.01 0.03 0.04 0.01 0.00 0.00 0.01 0.00 0.01 0.01
MSLP
1012.95 1012.63 1012.38 1011.94 1011.82 1011.39 1013.09 1015.41 1016.64 1017.65 1018.33 1019.88 1020.00 1019.62 1020.65 1021.40 1021.98 1023.08 1024.48 1024.90 1024.71 1024.39 1024.24 1024.12 1023.82 1023.45 1023.03 1022.63 1022.20 1021.80 1021.34 1020.82 1020.43 1020.01 1019.63 1019.27 1018.91 1018.68 1018.43 1018.15 1017.69 1017.36 1016.88 1016.31 1015.91 1015.50 1015.11 1014.74 1014.44
1012.78 1012.58 1012.19 1011.44 1011.24 1011.80 1014.00 1016.26 1017.53 1018.92 1019.97 1020.60 1020.95 1021.04 1021.32 1022.61 1023.40 1023.99 1024.51 1025.21 1024.87 1024.56 1024.45 1024.15 1023.99 1023.51 1023.16 1022.77 1022.44 1022.06 1021.68 1021.21 1020.65 1020.14 1019.64 1019.36 1019.04 1018.84 1018.65 1018.23 1017.89 1017.63 1017.27 1016.80 1016.21 1015.73 1015.27 1014.83 1014.50
1012.59 1012.29 1011.48 1011.32 1011.92 1013.06 1015.21 1017.73 1018.86 1020.12 1020.82 1020.96 1021.59 1022.20 1022.70 1023.93 1024.42 1024.79 1025.41 1025.32 1024.97 1024.71 1024.63 1024.42 1024.37 1023.87 1023.43 1022.97 1022.61 1022.19 1021.75 1021.34 1020.85 1020.29 1019.72 1019.36 1019.07 1018.75 1018.55 1018.24 1017.86 1017.72 1017.63 1017.22 1016.54 1015.84 1015.42 1014.97 1014.69
1012.21 1011.90 1012.05 1011.79 1013.69 1016.79 1017.72 1019.16 1019.96 1020.64 1021.33 1021.76 1022.07 1022.88 1024.29 1025.52 1025.41 1025.70 1025.73 1025.41 1025.15 1024.88 1024.80 1024.52 1024.42 1023.99 1023.64 1023.20 1022.72 1022.23 1021.72 1021.19 1020.73 1020.09 1019.68 1019.31 1018.90 1018.53 1018.29 1018.22 1017.95 1017.82 1017.53 1017.07 1016.63 1016.12 1015.44 1014.95 1014.72
1012.20 1011.68 1011.70 1013.19 1015.86 1018.13 1019.60 1020.50 1020.72 1021.12 1021.91 1022.40 1022.57 1023.44 1024.53 1025.74 1025.97 1026.01 1025.77 1025.47 1025.19 1024.89 1024.83 1024.55 1024.55 1024.34 1023.82 1023.38 1022.80 1022.28 1021.65 1021.04 1020.44 1020.13 1019.72 1019.23 1018.79 1018.37 1017.94 1017.88 1017.58 1017.56 1017.45 1017.10 1016.54 1016.18 1015.71 1015.17 1014.71
1011.59 1011.85 1011.87 1013.51 1016.71 1019.32 1020.70 1021.47 1021.68 1022.05 1022.50 1023.14 1023.27 1023.83 1025.06 1025.74 1026.15 1026.16 1025.91 1025.50 1025.32 1025.14 1025.01 1024.72 1024.44 1024.18 1023.78 1023.27 1022.87 1022.34 1021.67 1021.07 1020.78 1020.41 1019.66 1019.16 1018.78 1018.39 1018.02 1017.86 1017.64 1017.47 1017.28 1017.05 1016.55 1016.04 1015.75 1015.28 1014.87
1011.98 1012.17 1013.38 1015.06 1017.58 1019.57 1021.25 1022.31 1022.59 1022.98 1023.37 1024.10 1024.31 1024.17 1025.23 1025.93 1026.58 1026.34 1025.88 1025.58 1025.38 1025.29 1025.07 1024.71 1024.27 1024.03 1023.61 1023.23 1022.77 1022.21 1021.83 1021.49 1020.99 1020.37 1019.82 1019.43 1018.94 1018.35 1018.00 1018.03 1017.78 1017.49 1017.02 1016.84 1016.25 1015.97 1015.72 1015.26 1014.88
1013.39 1013.47 1014.73 1016.33 1017.92 1020.25 1022.03 1023.02 1023.84 1023.93 1024.76 1025.24 1025.07 1025.32 1025.97 1026.87 1026.83 1026.36 1025.94 1025.53 1025.35 1025.15 1024.98 1024.61 1024.32 1023.97 1023.65 1023.17 1022.68 1022.45 1022.07 1021.64 1021.09 1020.53 1019.99 1019.48 1019.01 1018.36 1018.07 1017.74 1017.41 1017.06 1016.76 1016.24 1015.79 1015.61 1015.52 1015.37 1014.93
1014.44 1014.23 1015.74 1017.65 1018.73 1021.02 1022.59 1023.25 1024.65 1025.14 1025.51 1026.16 1026.73 1027.22 1027.59 1027.41 1026.95 1026.38 1025.83 1025.42 1025.31 1025.22 1025.06 1024.67 1024.39 1024.13 1023.80 1023.17 1022.57 1022.38 1021.99 1021.50 1020.99 1020.37 1019.83 1019.23 1018.35 1017.84 1017.66 1017.26 1017.02 1016.69 1016.33 1015.82 1015.56 1015.21 1015.30 1015.13 1014.83
1015.23 1015.86 1018.30 1020.01 1020.51 1021.62 1022.97 1023.68 1024.84 1025.47 1026.02 1026.68 1027.10 1027.49 1027.69 1027.38 1026.94 1026.44 1025.96 1025.66 1025.45 1025.11 1024.88 1024.66 1024.42 1024.16 1023.72 1023.09 1022.69 1022.13 1021.69 1021.30 1020.88 1020.36 1019.82 1019.14 1018.66 1018.01 1017.83 1017.48 1016.89 1016.58 1016.18 1015.69 1015.39 1015.10 1015.08 1014.95 1014.25
1017.58 1018.48 1020.31 1021.26 1021.78 1022.75 1023.83 1024.94 1025.63 1025.95 1027.06 1027.90 1028.05 1028.04 1027.86 1027.43 1026.91 1026.62 1026.27 1026.05 1025.76 1025.58 1025.28 1024.99 1024.49 1024.20 1023.66 1023.23 1022.72 1022.44 1022.38 1021.83 1021.07 1020.41 1020.09 1019.42 1018.78 1017.89 1017.38 1016.84 1016.43 1015.90 1015.66 1015.30 1014.61 1014.45 1014.20 1013.83 1013.77
1019.08 1020.82 1021.27 1022.57 1023.33 1023.74 1024.61 1025.74 1026.94 1027.44 1028.45 1028.76 1028.89 1028.69 1028.11 1027.48 1027.11 1026.81 1026.59 1026.37 1025.99 1025.49 1025.24 1024.92 1024.64 1024.12 1023.79 1023.34 1023.48 1023.00 1022.35 1022.00 1021.07 1020.54 1020.28 1019.50 1018.93 1018.28 1017.46 1016.83 1016.34 1015.95 1015.57 1015.09 1014.79 1014.23 1013.88 1013.66 1013.49
1019.90 1021.72 1022.58 1023.46 1024.17 1024.92 1025.63 1026.49 1027.27 1028.36 1028.97 1029.07 1028.86 1028.42 1028.02 1027.71 1027.49 1027.22 1026.95 1026.51 1026.06 1025.54 1025.22 1024.89 1024.66 1024.40 1024.16 1023.87 1023.50 1022.87 1022.22 1021.56 1020.96 1020.37 1019.97 1019.31 1018.92 1018.52 1017.87 1016.96 1016.15 1015.70 1015.34 1015.19 1014.48 1014.10 1013.80 1013.42 1013.00
1020.97 1022.03 1023.17 1024.14 1024.77 1025.67 1026.12 1027.16 1027.42 1028.82 1029.11 1028.62 1028.31 1028.13 1028.19 1027.98 1027.71 1027.25 1026.99 1026.52 1026.07 1025.59 1025.25 1024.90 1024.64 1024.36 1024.01 1023.42 1023.16 1022.65 1021.98 1021.40 1020.72 1020.23 1019.69 1019.15 1018.74 1018.16 1017.52 1017.13 1016.74 1016.05 1015.21 1014.91 1014.43 1013.96 1013.59 1013.18 1012.88
1021.31 1022.22 1023.33 1024.25 1024.88 1025.82 1026.09 1027.30 1028.34 1028.98 1028.72 1028.26 1028.07 1028.03 1028.11 1027.93 1027.66 1027.30 1027.16 1026.63 1026.18 1025.71 1025.20 1024.90 1024.35 1024.37 1024.00 1023.62 1022.80 1022.37 1021.62 1021.01 1020.29 1019.79 1019.17 1018.83 1018.41 1017.91 1017.38 1016.97 1016.60 1016.16 1015.80 1015.10 1014.21 1013.68 1013.48 1012.96 1012.51
1020.70 1021.31 1022.01 1023.91 1024.73 1025.74 1026.27 1026.96 1028.65 1028.98 1028.49 1028.18 1028.02 1027.92 1027.83 1027.66 1027.57 1027.42 1027.15 1026.66 1026.38 1025.78 1025.29 1025.01 1024.58 1024.36 1023.93 1023.32 1022.62 1022.18 1021.30 1020.70 1020.09 1019.38 1018.46 1018.31 1018.02 1017.61 1017.05 1016.64 1016.20 1015.74 1015.40 1015.03 1014.56 1013.91 1012.99 1012.51 1012.07
1020.06 1019.60 1021.17 1023.56 1024.63 1025.40 1025.93 1026.95 1028.54 1028.88 1028.43 1028.12 1027.91 1027.71 1027.72 1027.60 1027.29 1027.15 1027.01 1026.77 1026.45 1025.98 1025.54 1024.98 1024.57 1024.04 1023.71 1022.95 1022.27 1021.48 1020.98 1020.46 1019.99 1019.15 1018.54 1018.08 1017.70 1017.19 1016.68 1016.12 1015.70 1015.33 1014.93 1014.71 1014.49 1014.01 1013.29 1012.47 1011.96
1018.90 1019.66 1021.22 1022.45 1024.60 1025.20 1025.71 1026.87 1028.17 1028.64 1028.34 1028.14 1027.85 1027.69 1027.76 1027.59 1027.43 1027.24 1027.08 1026.82 1026.59 1026.10 1025.68 1025.18 1024.71 1024.14 1023.50 1022.70 1021.96 1021.39 1020.87 1020.49 1019.88 1019.29 1018.74 1017.97 1017.54 1016.89 1016.30 1015.76 1015.24 1014.92 1014.55 1014.27 1014.11 1013.88 1013.52 1013.01 1012.15
1019.93 1020.29 1021.22 1023.31 1024.71 1025.00 1025.57 1026.71 1027.74 1028.29 1028.17 1028.03 1027.98 1028.01 1027.93 1027.67 1027.44 1027.35 1027.24 1026.85 1026.61 1026.20 1025.69 1025.29 1024.71 1024.11 1023.55 1022.85 1022.28 1021.64 1020.97 1020.37 1019.82 1019.01 1018.73 1017.93 1017.23 1016.73 1016.11 1015.43 1014.90 1014.42 1014.19 1013.91 1013.67 1013.50 1013.40 1013.10 1012.79
1020.41 1020.65 1021.91 1023.74 1024.62 1024.89 1025.63 1026.44 1027.43 1027.83 1028.20 1028.23 1028.31 1028.29 1028.01 1027.61 1027.40 1027.37 1027.27 1026.84 1026.49 1026.09 1025.86 1025.33 1024.77 1024.31 1024.06 1023.62 1022.83 1022.16 1021.39 1020.55 1019.63 1018.99 1018.67 1017.91 1016.88 1016.49 1015.79 1015.21 1014.58 1014.19 1013.79 1013.42 1013.12 1013.04 1013.04 1012.94 1012.85
1021.05 1021.41 1022.35 1023.04 1024.35 1024.93 1025.35 1025.60 1026.82 1027.35 1027.90 1028.01 1028.31 1028.44 1028.37 1028.16 1027.82 1027.48 1027.22 1026.86 1026.43 1026.08 1025.85 1025.44 1024.98 1024.74 1024.33 1023.63 1022.86 1022.14 1021.48 1020.48 1019.45 1018.94 1018.44 1017.59 1016.91 1016.26 1015.60 1014.86 1014.16 1013.65 1013.28 1013.03 1012.71 1012.55 1012.51 1012.53 1012.47
1021.62 1022.71 1022.79 1022.93 1023.37 1023.50 1024.89 1024.24 1025.81 1026.75 1027.25 1027.78 1028.03 1028.30 1028.34 1028.28 1028.25 1027.91 1027.51 1027.03 1026.54 1026.41 1026.09 1025.67 1025.19 1024.70 1024.07 1023.44 1022.77 1022.20 1021.58 1020.72 1019.85 1019.20 1018.43 1017.53 1016.96 1016.22 1015.42 1014.71 1013.93 1013.29 1012.79 1012.50 1012.34 1012.00 1012.03 1012.24 1012.28
1022.85 1022.96 1022.64 1022.57 1022.58 1023.13 1024.05 1024.49 1024.89 1026.69 1026.93 1027.73 1027.96 1028.33 1028.46 1028.42 1028.32 1028.03 1027.74 1027.33 1026.89 1026.58 1026.23 1025.79 1025.16 1024.55 1023.96 1023.55 1022.78 1022.16 1021.55 1020.83 1020.04 1019.26 1018.34 1017.57 1016.75 1016.07 1015.35 1014.57 1013.73 1012.91 1012.32 1011.85 1011.63 1011.25 1011.36 1011.65 1011.90
1023.34 1022.85 1022.58 1022.30 1021.95 1021.85 1022.96 1024.02 1024.28 1026.09 1027.72 1028.16 1028.30 1028.56 1028.57 1028.47 1028.35 1028.37 1028.07 1027.63 1027.08 1026.77 1026.40 1025.78 1025.07 1024.66 1023.98 1023.46 1022.77 1022.20 1021.57 1020.74 1020.07 1019.15 1018.19 1017.39 1016.54 1015.77 1015.18 1014.39 1013.48 1012.75 1012.02 1011.53 1011.11 1010.85 1010.95 1011.18 1011.35
1022.92 1022.31 1021.12 1020.76 1020.60 1020.96 1022.94 1023.85 1024.10 1026.70 1028.07 1028.71 1028.92 1028.94 1028.80 1028.59 1028.41 1028.29 1028.12 1027.66 1027.31 1026.85 1026.34 1025.75 1025.13 1024.68 1023.81 1023.22 1022.73 1022.10 1021.29 1020.61 1020.10 1019.25 1018.44 1017.46 1016.48 1015.68 1014.95 1014.36 1013.53 1012.62 1011.90 1011.27 1010.97 1010.79 1010.77 1010.85 1010.92
1023.41 1022.89 1021.97 1021.51 1020.93 1021.15 1022.90 1023.14 1024.56 1026.81 1028.17 1028.71 1029.26 1029.30 1029.10 1028.96 1028.72 1028.53 1028.36 1028.23 1027.56 1026.98 1026.45 1025.85 1025.19 1024.64 1023.89 1023.12 1022.47 1021.86 1021.23 1020.53 1020.05 1019.36 1018.56 1017.55 1016.64 1015.78 1014.94 1014.23 1013.45 1012.64 1011.84 1011.05 1010.56 1010.54 1010.45 1010.57 1010.51
1023.80 1023.63 1024.19 1022.97 1022.76 1022.26 1021.35 1023.12 1025.47 1026.89 1027.45 1028.39 1028.79 1029.04 1029.08 1029.00 1028.91 1028.68 1028.50 1028.59 1027.74 1027.14 1026.57 1026.01 1025.34 1024.73 1023.97 1023.25 1022.53 1021.81 1021.09 1020.44 1019.84 1019.34 1018.34 1017.34 1016.45 1015.60 1014.69 1014.12 1013.39 1012.52 1011.67 1011.10 1010.35 1010.19 1010.17 1009.94 1010.10
1024.70 1025.36 1024.72 1023.67 1023.00 1021.86 1020.94 1022.38 1023.62 1026.15 1027.38 1028.22 1028.54 1028.75 1028.87 1029.08 1028.99 1028.91 1028.76 1028.52 1027.85 1027.35 1026.71 1026.11 1025.51 1024.75 1024.03 1023.42 1022.59 1021.83 1021.18 1020.50 1019.81 1019.12 1018.20 1017.18 1016.20 1015.38 1014.37 1013.84 1013.05 1012.27 1011.52 1010.86 1010.33 1009.99 1009.77 1009.70 1010.11
1025.57 1025.24 1025.43 1025.10 1024.70 1023.76 1022.83 1022.03 1024.08 1026.23 1027.76 1028.37 1028.57 1028.97 1029.10 1028.98 1029.04 1028.96 1028.78 1028.43 1027.76 1027.49 1026.88 1026.15 1025.46 1024.76 1024.03 1023.39 1022.67 1021.92 1021.37 1020.76 1019.85 1018.87 1018.13 1017.18 1016.20 1015.30 1014.15 1013.56 1012.63 1011.65 1011.01 1010.60 1010.27 1009.69 1009.53 1009.44 1009.78
1026.21 1025.99 1025.84 1025.33 1025.47 1025.43 1025.33 1023.86 1025.21 1026.71 1027.93 1028.67 1028.94 1029.25 1029.26 1029.24 1029.12 1028.96 1028.65 1028.16 1027.71 1027.42 1026.99 1026.19 1025.44 1024.83 1024.21 1023.50 1022.68 1022.05 1021.75 1021.11 1020.07 1018.95 1018.19 1017.35 1016.37 1015.39 1014.41 1013.56 1012.44 1011.10 1010.18 1010.45 1010.43 1009.88 1009.39 1009.32 1009.36
Thickness
5776 5778 5779 5774 5751 5750 5718 5703 5709 5695 5696 5685 5686 5686 5672 5667 5657 5649 5646 5639 5638 5638 5638 5637 5637 5637 5638 5639 5641 5642 5645 5648 5650 5652 5655 5658 5661 5663 5664 5666 5670 5673 5678 5684 5688 5693 5697 5701 5705
5777 5777 5774 5766 5748 5733 5717 5708 5697 5690 5685 5683 5677 5675 5670 5650 5651 5644 5638 5632 5631 5630 5628 5627 5626 5627 5627 5627 5627 5628 5629 5632 5636 5640 5643 5644 5647 5650 5652 5656 5659 5661 5664 5669 5675 5681 5687 5693 5697
5777 5777 5763 5753 5742 5732 5716 5695 5691 5682 5680 5678 5668 5665 5656 5639 5638 5633 5628 5624 5623 5621 5618 5615 5612 5613 5613 5614 5614 5615 5616 5617 5620 5624 5628 5631 5633 5636 5638 5643 5648 5649 5649 5653 5661 5668 5674 5680 5685
5772 5769 5760 5745 5718 5691 5694 5685 5684 5677 5673 5668 5663 5648 5639 5628 5625 5621 5616 5614 5611 5609 5606 5604 5600 5599 5598 5598 5599 5600 5603 5606 5608 5613 5615 5618 5620 5623 5627 5628 5632 5636 5637 5642 5647 5653 5661 5668 5673
5771 5763 5742 5725 5696 5685 5681 5676 5678 5670 5661 5655 5654 5637 5628 5620 5616 5611 5607 5605 5602 5598 5593 5591 5588 5585 5585 5585 5587 5587 5588 5590 5594 5596 5599 5604 5608 5611 5614 5615 5619 5622 5626 5629 5634 5639 5645 5653 5660
5758 5757 5740 5725 5693 5676 5671 5670 5667 5660 5654 5646 5642 5632 5618 5614 5606 5601 5597 5594 5590 5586 5582 5578 5575 5573 5572 5572 5571 5571 5573 5575 5576 5577 5583 5587 5590 5594 5598 5599 5602 5607 5608 5613 5618 5625 5629 5638 5644
5750 5745 5722 5712 5686 5675 5665 5661 5654 5648 5642 5630 5630 5622 5613 5604 5594 5590 5587 5583 5578 5572 5568 5564 5563 5560 5558 5556 5555 5555 5555 5555 5557 5559 5563 5566 5571 5576 5580 5581 5583 5587 5593 5596 5604 5610 5614 5621 5627
5744 5737 5712 5702 5688 5667 5658 5649 5640 5636 5622 5622 5620 5607 5599 5588 5584 5581 5577 5573 5567 5560 5554 5550 5545 5542 5539 5537 5535 5532 5531 5531 5532 5535 5540 5544 5547 5552 5556 5562 5568 5572 5574 5582 5590 5595 5600 5604 5611
5740 5728 5709 5690 5686 5659 5652 5642 5630 5625 5615 5606 5598 5588 5581 5577 5575 5571 5568 5563 5554 5544 5536 5532 5527 5523 5519 5518 5518 5515 5514 5514 5515 5517 5518 5519 5524 5528 5531 5537 5545 5551 5557 5564 5571 5578 5584 5589 5596
5728 5718 5685 5672 5670 5657 5645 5638 5625 5616 5608 5597 5590 5582 5575 5571 5567 5562 5557 5551 5542 5534 5525 5516 5509 5505 5503 5502 5500 5500 5499 5497 5497 5498 5500 5502 5502 5503 5501 5504 5515 5525 5533 5543 5550 5559 5563 5571 5580
5701 5690 5671 5662 5660 5650 5634 5621 5616 5610 5593 5581 5574 5570 5566 5562 5559 5551 5544 5533 5524 5513 5503 5495 5492 5485 5482 5480 5480 5480 5479 5480 5483 5485 5487 5489 5489 5492 5494 5497 5500 5508 5514 5521 5534 5542 5549 5558 5564
5684 5670 5666 5651 5644 5638 5626 5614 5597 5592 5577 5572 5565 5561 5558 5556 5548 5541 5530 5518 5507 5497 5485 5476 5470 5468 5467 5468 5466 5467 5470 5470 5476 5476 5474 5479 5479 5480 5484 5489 5493 5497 5502 5508 5515 5525 5533 5541 5547
5679 5660 5653 5643 5634 5624 5616 5603 5593 5579 5570 5566 5562 5557 5552 5545 5535 5524 5512 5499 5488 5479 5472 5467 5464 5463 5463 5463 5462 5463 5465 5467 5468 5469 5469 5472 5471 5470 5473 5479 5485 5489 5495 5498 5507 5513 5520 5528 5535
5671 5657 5644 5634 5625 5615 5607 5595 5591 5573 5566 5566 5560 5552 5540 5530 5519 5508 5496 5487 5482 5477 5471 5468 5465 5463 5461 5462 5460 5459 5459 5460 5462 5462 5463 5464 5464 5467 5469 5469 5471 5478 5487 5491 5498 5504 5510 5519 5525
5666 5648 5638 5629 5622 5609 5609 5590 5575 5568 5567 5563 5556 5546 5531 5517 5506 5496 5488 5484 5479 5474 5471 5467 5467 5462 5459 5456 5455 5453 5454 5454 5454 5455 5456 5456 5457 5458 5460 5461 5463 5465 5470 5478 5489 5496 5500 5509 5516
5666 5659 5649 5628 5621 5609 5604 5597 5571 5565 5564 5557 5548 5538 5522 5509 5497 5491 5485 5480 5474 5472 5468 5464 5463 5457 5453 5451 5449 5446 5446 5446 5446 5447 5450 5448 5448 5448 5451 5453 5455 5458 5461 5466 5472 5480 5491 5499 5506
5667 5676 5655 5623 5619 5610 5605 5590 5569 5561 5559 5551 5542 5529 5512 5500 5495 5489 5481 5476 5471 5468 5465 5463 5459 5455 5449 5447 5445 5444 5441 5439 5437 5437 5437 5436 5436 5437 5439 5442 5444 5447 5451 5453 5457 5464 5473 5484 5492
5679 5668 5651 5640 5614 5608 5602 5586 5568 5558 5552 5543 5532 5516 5501 5493 5489 5483 5477 5472 5468 5465 5461 5458 5454 5451 5448 5446 5444 5441 5438 5434 5431 5429 5427 5427 5425 5424 5425 5427 5430 5432 5437 5442 5445 5449 5455 5463 5474
5663 5659 5649 5622 5610 5608 5600 5583 5567 5554 5546 5534 5519 5505 5491 5487 5485 5479 5473 5470 5465 5461 5458 5455 5453 5449 5445 5443 5441 5438 5434 5431 5426 5424 5419 5418 5417 5415 5414 5414 5415 5417 5421 5425 5430 5435 5439 5445 5451
5661 5657 5639 5615 5607 5607 5592 5579 5564 5554 5538 5524 5507 5490 5483 5484 5481 5476 5471 5468 5464 5461 5456 5453 5449 5445 5439 5435 5432 5429 5426 5423 5421 5417 5411 5408 5408 5405 5405 5404 5404 5404 5407 5411 5416 5420 5424 5429 5434
5655 5650 5635 5629 5605 5598 5591 5586 5562 5553 5533 5519 5498 5482 5477 5476 5474 5473 5468 5466 5464 5459 5453 5449 5445 5439 5435 5432 5429 5425 5419 5417 5416 5409 5403 5400 5396 5393 5393 5393 5396 5398 5399 5400 5404 5407 5411 5416 5421
5657 5631 5626 5621 5615 5624 5588 5612 5567 5549 5533 5514 5494 5481 5476 5473 5469 5467 5464 5463 5462 5455 5450 5444 5440 5437 5433 5428 5424 5418 5412 5407 5403 5396 5390 5385 5378 5375 5377 5381 5384 5389 5393 5396 5397 5401 5403 5405 5407
5642 5629 5627 5621 5618 5607 5588 5587 5572 5540 5534 5510 5494 5480 5475 5474 5467 5464 5461 5460 5458 5452 5447 5442 5439 5435 5431 5424 5420 5414 5407 5401 5394 5385 5377 5368 5361 5358 5359 5364 5372 5380 5386 5391 5394 5399 5400 5400 5402
5630 5631 5624 5620 5617 5623 5594 5583 5580 5550 5517 5502 5488 5478 5474 5471 5467 5460 5458 5456 5454 5448 5443 5440 5438 5433 5428 5423 5418 5411 5403 5396 5385 5376 5366 5355 5351 5351 5349 5352 5361 5369 5377 5383 5387 5392 5394 5395 5397
5638 5636 5653 5646 5637 5633 5583 5578 5580 5534 5509 5490 5477 5474 5472 5469 5465 5460 5457 5455 5451 5446 5442 5439 5436 5430 5428 5422 5416 5409 5401 5390 5376 5364 5351 5345 5343 5342 5342 5342 5350 5360 5369 5378 5382 5385 5389 5392 5394
5629 5629 5641 5626 5634 5627 5579 5591 5576 5531 5506 5492 5476 5470 5469 5464 5461 5458 5455 5449 5447 5444 5440 5437 5434 5428 5425 5421 5416 5408 5397 5385 5370 5356 5343 5337 5333 5332 5334 5336 5341 5351 5361 5372 5379 5382 5385 5387 5390
5631 5630 5603 5610 5594 5595 5613 5582 5547 5526 5519 5495 5478 5471 5466 5463 5458 5456 5452 5443 5444 5441 5439 5436 5431 5426 5423 5419 5414 5407 5396 5384 5370 5354 5343 5338 5333 5331 5332 5332 5337 5346 5357 5365 5375 5379 5381 5386 5386
5623 5603 5617 5611 5601 5610 5626 5593 5585 5539 5516 5494 5481 5474 5469 5462 5456 5453 5448 5443 5442 5438 5436 5432 5428 5425 5421 5415 5412 5405 5395 5383 5370 5357 5347 5342 5338 5334 5335 5334 5339 5348 5357 5366 5372 5377 5382 5384 5380
5618 5615 5595 5593 5584 5596 5597 5610 5569 5537 5508 5491 5481 5472 5466 5462 5455 5451 5447 5444 5443 5436 5433 5431 5428 5424 5420 5416 5411 5405 5394 5383 5373 5364 5354 5346 5343 5341 5343 5341 5347 5356 5363 5369 5373 5380 5382 5382 5376
5601 5602 5598 5605 5588 5564 5560 5590 5554 5528 5507 5488 5478 5467 5464 5458 5454 5452 5449 5446 5442 5437 5432 5430 5428 5424 5420 5416 5412 5405 5393 5384 5375 5369 5360 5352 5348 5347 5349 5350 5357 5368 5375 5373 5373 5378 5382 5380 5376